Weather Roundup
Issued by NWS Chicago, IL

Home | Current Version | Previous Version | Text Only | Print | Product List | Glossary On
Versions: 1 2 3 4 5 6 7 8 9 10 11 12 13 14 15 16 17 18 19 20 21 22 23 24 25 26 27 28 29 30 31 32 33 34 35 36 37 38 39 40 41 42 43 44 45 46 47 48 49 50
000
NZUS59 KLOT 251312
HRRLOT

CHICAGO AREA WEATHER ROUNDUP
NATIONAL WEATHER SERVICE CHICAGO/ROMEOVILLE IL
700 AM CST SAT FEB 25 2017

NOTE: "FAIR" INDICATES FEW OR NO CLOUDS BELOW 12,000 FEET WITH NO
SIGNIFICANT WEATHER AND/OR OBSTRUCTIONS TO VISIBILITY.

* THESE STATIONS ARE NOT UNDER NWS QUALITY CONTROL. THEY ALSO MAY NOT
  REPORT WEATHER SUCH AS PRECIPITATION OR FOG.

ILZ005-006-012>014-019>023-251400-
NORTHEAST ILLINOIS

CITY           SKY/WX    TMP DP  RH WIND       PRES   REMARKS
OHARE          MOCLDY    23  15  71 NW16G24   29.74R WCI  10
MIDWAY         FLURRIES  25  15  66 W15G23    29.74R WCI  13
AURORA         LGT SNOW  22  16  78 W20G25    29.78R WCI   7
LANSING*       CLOUDY    26  19  76 W18G26    29.75R WCI  12
JOLIET*        FLURRIES  24  17  74 NW10G18   29.79R WCI  13
WAUKEGAN       MOCLDY    20  14  77 NW10G22   29.71R WCI   9
DUPAGE AIRPORT CLOUDY    21  13  71 NW14G25   29.76R WCI   8
WHEELING       CLOUDY    21  14  74 NW17G24   29.75R WCI   7
KANKAKEE*      CLOUDY    26  17  68 W20G28    29.79R WCI  12
MORRIS*        FLURRIES  23  16  74 NW21G31   29.79R WCI   8
LEWIS AIRPORT* CLOUDY    22  19  87 NW15G25   29.78R WCI   9
NORTHERLY ISL    N/A     25  16  68 W18         N/A  WCI  12
$$

WIZ051-052-058>065-066-070>072-251400-
SOUTHEAST WISCONSIN

CITY           SKY/WX    TMP DP  RH WIND       PRES   REMARKS
MILWAUKEE      LGT SNOW  21  15  78 W15       29.69R WCI   8
KENOSHA*       LGT SNOW  21  15  78 W16G22    29.71R WCI   7
RACINE*        CLOUDY    21  14  74 NW12G22   29.71R WCI   9
WAUKESHA       LGT SNOW  18  14  86 W17G24    29.70R VSB 1   WCI   2
WEST BEND      LGT SNOW  19  18  93 NW5       29.67R WCI  13
$$

INZ001>003-010>013-019-020-251400-
NORTHWEST INDIANA

CITY           SKY/WX    TMP DP  RH WIND       PRES   REMARKS
GARY*          MOCLDY    27  16  63 W17G39    29.74R WCI  14
MICHIGAN CITY* NOT AVBL
RENSSELAER*    NOT AVBL
VALPARAISO     CLOUDY    29  21  72 W16G24    29.71R WCI  17
$$

LMZ740>746-251400-
SOUTHERN LAKE MICHIGAN

STATION/POSITION TIME  SKY/WX   TEMP WIND        PRES    VSBY
                                AIR  DIR/SP/G
                 (UTC)          (F)  (DEG/KT/KT) (MB)    (MI)
HARRISON CRIB    1240            25  300/ 21/ 24   N/A
BURNHAM HARBOR   1300            25  250/ 13/ 19   N/A
CALUMET HARBOR   1248            25  260/  8/ 13 1006.5R
BURNS HARBOR     1230            29  290/ 18/ 24 1006.4R
MICHIGAN CITY    1240            27  270/ 27/ 31   N/A
$$

ABBREVIATIONS USED IN REMARKS
   TC - TEMPERATURE IN CELSIUS
  WCI - WIND CHILL INDEX
   HX - HEAT INDEX
  VSB - VISIBILITY
$$



USA.gov is the U.S. government's official web portal to all federal, state and local government web resources and services.